Location: Blue Pit
(43.1414°N, 93.2208°W)
Time: 00:57:05
(UTC+00:00)

CORIOLIS - Pass Details

Date: 18 November 2025
Orbit: 815 x 836 km, 98.7° (Epoch: 08 December)

Event Time Altitude Azimuth Distance (km) Brightness Sun altitude
Rises 12:32:40 0° 14° (NNE) 3,352 7.3 -7.1°
Reaches altitude 10° 12:35:02 10° 15° (NNE) 2,416 6.5 -6.7°
Maximum altitude 12:40:23 83° 103° (ESE) 829 4.3 -5.8°
Drops below altitude 10° 12:45:43 10° 192° (SSW) 2,407 6.7 -4.9°
Sets 12:48:03 0° 194° (SSW) 3,338 7.4 -4.5°
